COSMOS 1867 COOLANT

Satellite information

Favourite Embed

Satellite Type and Status

DEBRISIN ORBIT

Key statistics

Satellite COSMOS 1867 COOLANT at a glance.

Uptime

13816

Days in orbit

Revolutions

≈ 14.3

Per day

Orbit

LEO

Low Earth Orbit

Inclination

65.0

Latest

Satellite identification and parameters

Extended collection of information and parameters for COSMOS 1867 COOLANT.

Object identification

Identified? True

Debris? False

Object name: COSMOS 1867 COOLANT

International designator: 1987-060AT

Object number (NORAD): 43326

Object ID (CCSDS): 43326

Country: COMMONWEALTH OF INDEPENDENT STATES (CIS)

Current information (Y/N): Y

RCS size: SMALL

Orbital parameters

Period: 100.425 minutes

Inclination: 65.0098 deg

SMA: 7156.849 km

Apoapsis: 790.188 km

Periapsis: 767.241 km

RAAN: 75.3902 deg

Eccentricy: 0.0016032

Argument of periapsis: 258.6308 deg

Mean anomaly: 101.2976 deg

Mean motion: 14.33903573 rev/day

Mean motion (dot): 0.00000752 rev/day2

B* drag term: 0.00030494 1/REarth

Two-line elements (TLE)

Creation date: May 7, 2025, 3:14 a.m.

Reference frame: TEME

Reference center: EARTH

Epoch: May 6, 2025, 6:04 a.m. UTC

TLE line 0: 0 COSMOS 1867 COOLANT

TLE line 1: 1 43326U 87060AT 25126.25342809 .00000752 00000-0 30494-3 0 9995

TLE line 2: 2 43326 65.0098 75.3902 0016032 258.6308 101.2976 14.33903573398899

Live tracking on map

Real-time ground track for satellite COSMOS 1867 COOLANT.

In-orbit conjunctions

A list of the most updated potential collisions computed for object COSMOS 1867 COOLANT.

Target Orbit TCA Probability of collision Miss distance Type
NOAA 7 DEB SSO 2025-03-05 23:52:46 0.0001236514 344.0 (m) DEBRIS
COSMOS 2251 DEB LEO 2025-03-05 01:47:22 0.0001106925 349.0 (m) DEBRIS
DMSP 5D-2 F10 (USA 68) SSO 2025-03-04 05:10:38 0.01354115 24.0 (m) PAYLOAD
THOR ABLESTAR DEB LEO 2025-01-04 06:34:05 0.001035915 38.0 (m) DEBRIS
NOAA 17 DEB SSO 2024-12-31 18:03:37 0.0001507744 196.0 (m) DEBRIS

Associated space launch

Nuclear-powered magnetospheric research satellite

COSMOS 1867 COOLANT was lifted into orbit during the mission ‘Tsiklon-2 | Plasma-A 2’, on board a Tsiklon-2 space rocket.

The launch took place on July 10, 1987, 3:35 p.m. from 90.

For more information about the launch, click the button.

Launch to space Tsiklon-2 | Plasma-A 2
Tsiklon-2 | Plasma-A 2

Agency: N/A

Status: Launch Successful

Launch date: July 10, 1987, 3:35 p.m. UTC

Rocket: Tsiklon-2

Launch pad: 90

Location: Baikonur Cosmodrome, Republic of Kazakhstan

...

Latest news about this satellite

There are no fresh news available about this satellite. Check back as we update our databases every day.


Newsletter sign-up

Weekly statistics, charts and insights to help you stay on top of the space industry.